sat.trackr.live / text

‹ back to catalog

COSMOS 1989 (ETALON 1)

NORAD 19751 · 1989-001C

PAYLOAD ACTIVE UNKNOWN

§ Identity

Operator
Country
CIS
Launch date
1989-01-10
Launch site
TYMSC
Launch vehicle
Mass (kg)
RCS (m²)
1.26

Purposes: science

External: N2YO · Heavens-Above · Gunter

§ Orbital elements

Epoch: 2026-05-24T12:44:13.865856Z

Period
675.56 min
Inclination
64.9327°
Eccentricity
0.0023322
Mean motion
2.13155969 rev/d
Perigee alt
19,066.1 km
Apogee alt
19,185.1 km
Semi-major
25,503.7 km
B*
0.0000e+0
RAAN
73.0040°
Arg perigee
217.6070°
Mean anomaly
314.3361°
Rev number
29,086

§ Raw data

COSMOS 1989 (ETALON 1)1 19751U 89001C   26144.53071604 -.00000036  00000+0  00000+0 0  99922 19751  64.9327  73.0040 0023322 217.6070 314.3361  2.13155969290862

JSON: /api/v1/satellites/19751 · /tle

For live sub-satellite position, see the globe view (requires WebGL).

§ Visibility from observer

Set your observer location to see the next 7 days of passes ≥ 10°. The values pass through the URL so the page stays shareable.

No JS? Fill the form by hand. The geolocation button needs JavaScript.